When you browse on this site, cookies collect data to enhance your experience and personalize the content and advertising you see.
Visit our Privacy Policy to learn more. By continuing to use the site, you agree to this use of cookies and data.
  • En España
  • Lista de países
  • Para 7 días
  • Temperatura del agua
  • El tiempo en el mapa
  • Informadores
  • user-avatar
    Iniciar sesión

    Tiempo cada hora Muyinga

    Hoy, 29 Febrero, Sábado

    Tiempo Temperatura Precipitaciones Viento Presión Humedad
    00:00 +14°C° 0 mm 0 mps 628 mmHg 96%
    01:00 +15°C° 0 mm 1 mps 628 mmHg 96%
    02:00 +15°C° 0 mm 1 mps 627 mmHg 95%
    03:00 +14°C° 0 mm 0 mps 627 mmHg 95%
    04:00 +14°C° 0 mm 0 mps 627 mmHg 95%
    05:00 +14°C° 0 mm 0 mps 627 mmHg 95%
    06:00 +15°C° 0 mm 0 mps 628 mmHg 94%
    07:00 +16°C° 0 mm 0 mps 629 mmHg 92%
    08:00 +17°C° 0 mm 0 mps 630 mmHg 90%
    09:00 +20°C° 0 mm 0 mps 630 mmHg 81%
    10:00 +22°C° 0 mm 0 mps 631 mmHg 72%
    11:00 +25°C° 0 mm 0 mps 632 mmHg 63%
    12:00 +26°C° 0 mm 1 mps 631 mmHg 63%
    13:00 +26°C° 0 mm 1 mps 630 mmHg 63%
    14:00 +26°C° 0 mm 1 mps 629 mmHg 63%
    15:00 +25°C° 0.2 mm 1 mps 628 mmHg 68%
    16:00 +25°C° 0.2 mm 1 mps 627 mmHg 73%
    17:00 +22°C° 0.2 mm 0 mps 627 mmHg 78%
    18:00 +21°C° 0.2 mm 0 mps 627 mmHg 82%
    19:00 +19°C° 0.2 mm 0 mps 627 mmHg 86%
    20:00 +17°C° 0.2 mm 0 mps 627 mmHg 90%
    21:00 +17°C° 0 mm 0 mps 627 mmHg 90%
    22:00 +16°C° 0 mm 0 mps 627 mmHg 91%
    23:00 +16°C° 0 mm 0 mps 628 mmHg 92%

    Mañana, 1 Marzo, Domingo

    Tiempo Temperatura Precipitaciones Viento Presión Humedad
    00:00 +16°C° 0.2 mm 0 mps 627 mmHg 93%
    01:00 +16°C° 0.2 mm 0 mps 627 mmHg 93%
    02:00 +15°C° 0.2 mm 0 mps 627 mmHg 94%
    03:00 +15°C° 0.4 mm 0 mps 627 mmHg 95%
    04:00 +15°C° 0.4 mm 0 mps 627 mmHg 95%
    05:00 +15°C° 0.4 mm 0 mps 627 mmHg 96%
    06:00 +16°C° 0.2 mm 0 mps 628 mmHg 94%
    07:00 +17°C° 0.2 mm 0 mps 628 mmHg 91%
    08:00 +19°C° 0.2 mm 0 mps 629 mmHg 89%
    09:00 +21°C° 0.7 mm 0 mps 630 mmHg 83%
    10:00 +23°C° 0.7 mm 0 mps 630 mmHg 76%
    11:00 +25°C° 0.7 mm 0 mps 630 mmHg 70%
    12:00 +27°C° 0.6 mm 1 mps 629 mmHg 66%
    13:00 +27°C° 0.6 mm 1 mps 629 mmHg 63%
    14:00 +27°C° 0.6 mm 1 mps 628 mmHg 60%
    15:00 +26°C° 0.7 mm 1 mps 628 mmHg 68%
    16:00 +25°C° 0.7 mm 1 mps 627 mmHg 76%
    17:00 +24°C° 0.7 mm 1 mps 627 mmHg 84%
    18:00 +22°C° 0.5 mm 1 mps 627 mmHg 86%
    19:00 +21°C° 0.5 mm 1 mps 627 mmHg 88%
    20:00 +19°C° 0.5 mm 1 mps 627 mmHg 91%
    21:00 +19°C° 0.3 mm 1 mps 628 mmHg 91%
    22:00 +19°C° 0.3 mm 1 mps 628 mmHg 92%
    23:00 +18°C° 0.3 mm 1 mps 628 mmHg 93%

    Pasado mañana, 2 Marzo, Lunes

    Tiempo Temperatura Precipitaciones Viento Presión Humedad
    00:00 +16°C° 0.5 mm 0 mps 628 mmHg 94%
    01:00 +16°C° 0.5 mm 0 mps 628 mmHg 94%
    02:00 +16°C° 0.5 mm 0 mps 627 mmHg 95%
    03:00 +16°C° 0.4 mm 0 mps 627 mmHg 95%
    04:00 +16°C° 0.4 mm 0 mps 627 mmHg 95%
    05:00 +16°C° 0.4 mm 0 mps 627 mmHg 96%
    06:00 +18°C° 0.3 mm 1 mps 628 mmHg 95%
    07:00 +18°C° 0.3 mm 1 mps 629 mmHg 95%
    08:00 +18°C° 0.3 mm 1 mps 629 mmHg 95%
    09:00 +19°C° 0.2 mm 1 mps 629 mmHg 94%
    10:00 +20°C° 0.2 mm 1 mps 629 mmHg 92%
    11:00 +19°C° 0.2 mm 2 mps 629 mmHg 90%
    12:00 +20°C° 0.6 mm 2 mps 629 mmHg 87%
    13:00 +21°C° 0.6 mm 2 mps 629 mmHg 84%
    14:00 +23°C° 0.6 mm 2 mps 628 mmHg 81%
    15:00 +23°C° 0.5 mm 2 mps 628 mmHg 82%
    16:00 +23°C° 0.5 mm 1 mps 628 mmHg 83%
    17:00 +22°C° 0.5 mm 1 mps 628 mmHg 84%
    18:00 +21°C° 0.1 mm 1 mps 628 mmHg 86%
    19:00 +20°C° 0.1 mm 1 mps 628 mmHg 87%
    20:00 +17°C° 0.1 mm 0 mps 628 mmHg 89%
    21:00 +17°C° 0 mm 0 mps 628 mmHg 90%
    22:00 +19°C° 0 mm 1 mps 628 mmHg 90%
    23:00 +18°C° 0 mm 1 mps 629 mmHg 91%

    3 Marzo, Martes

    Tiempo Temperatura Precipitaciones Viento Presión Humedad
    00:00 +18°C° 0 mm 1 mps 628 mmHg 91%
    01:00 +16°C° 0 mm 0 mps 628 mmHg 91%
    02:00 +16°C° 0 mm 0 mps 628 mmHg 91%
    03:00 +16°C° 0 mm 0 mps 628 mmHg 92%
    04:00 +16°C° 0 mm 1 mps 628 mmHg 92%
    05:00 +16°C° 0 mm 1 mps 628 mmHg 92%
    06:00 +16°C° 0 mm 0 mps 629 mmHg 90%
    07:00 +17°C° 0 mm 0 mps 629 mmHg 87%
    08:00 +18°C° 0 mm 0 mps 630 mmHg 85%
    09:00 +20°C° 0.2 mm 0 mps 631 mmHg 78%
    10:00 +22°C° 0.2 mm 0 mps 631 mmHg 72%
    11:00 +26°C° 0.2 mm 1 mps 631 mmHg 66%
    12:00 +26°C° 1.1 mm 1 mps 631 mmHg 66%
    13:00 +24°C° 1.1 mm 0 mps 630 mmHg 66%
    14:00 +24°C° 1.1 mm 0 mps 629 mmHg 66%
    15:00 +24°C° 0.4 mm 0 mps 629 mmHg 71%
    16:00 +25°C° 0.4 mm 1 mps 629 mmHg 76%
    17:00 +24°C° 0.4 mm 1 mps 628 mmHg 81%
    18:00 +22°C° 0.7 mm 1 mps 628 mmHg 85%
    19:00 +21°C° 0.7 mm 1 mps 629 mmHg 88%
    20:00 +19°C° 0.7 mm 1 mps 629 mmHg 91%
    21:00 +19°C° 0.4 mm 1 mps 629 mmHg 92%
    22:00 +19°C° 0.4 mm 1 mps 629 mmHg 92%
    23:00 +18°C° 0.4 mm 1 mps 629 mmHg 93%

    4 Marzo, Miércoles

    Tiempo Temperatura Precipitaciones Viento Presión Humedad
    00:00 +18°C° 0.1 mm 1 mps 629 mmHg 93%
    01:00 +16°C° 0.1 mm 0 mps 629 mmHg 93%
    02:00 +16°C° 0.1 mm 0 mps 628 mmHg 94%
    03:00 +16°C° 0.4 mm 0 mps 628 mmHg 94%
    04:00 +15°C° 0.4 mm 0 mps 628 mmHg 94%
    05:00 +15°C° 0.4 mm 0 mps 629 mmHg 95%
    06:00 +16°C° 0.3 mm 0 mps 629 mmHg 93%
    07:00 +17°C° 0.3 mm 0 mps 630 mmHg 91%
    08:00 +18°C° 0.3 mm 0 mps 631 mmHg 89%
    09:00 +20°C° 1.2 mm 0 mps 631 mmHg 85%
    10:00 +21°C° 1.2 mm 0 mps 631 mmHg 81%
    11:00 +25°C° 1.2 mm 1 mps 631 mmHg 76%
    12:00 +25°C° 1.7 mm 1 mps 631 mmHg 75%
    13:00 +25°C° 1.7 mm 1 mps 630 mmHg 75%
    14:00 +23°C° 1.7 mm 0 mps 629 mmHg 74%
    15:00 +24°C° 1 mm 1 mps 629 mmHg 80%
    16:00 +22°C° 1 mm 1 mps 628 mmHg 85%
    17:00 +21°C° 1 mm 1 mps 628 mmHg 90%
    18:00 +20°C° 0.2 mm 1 mps 628 mmHg 91%
    19:00 +19°C° 0.2 mm 1 mps 628 mmHg 92%
    20:00 +16°C° 0.2 mm 0 mps 628 mmHg 93%
    21:00 +18°C° 0.1 mm 1 mps 629 mmHg 93%
    22:00 +18°C° 0.1 mm 1 mps 629 mmHg 93%
    23:00 +18°C° 0.1 mm 1 mps 629 mmHg 92%

    5 Marzo, Jueves

    Tiempo Temperatura Precipitaciones Viento Presión Humedad
    00:00 +18°C° 0 mm 1 mps 629 mmHg 92%
    01:00 +18°C° 0 mm 1 mps 628 mmHg 93%
    02:00 +18°C° 0 mm 1 mps 628 mmHg 93%
    03:00 +18°C° 0 mm 1 mps 628 mmHg 91%
    04:00 +18°C° 0 mm 1 mps 628 mmHg 90%
    05:00 +18°C° 0 mm 1 mps 628 mmHg 89%
    06:00 +18°C° 0 mm 1 mps 628 mmHg 89%
    07:00 +19°C° 0 mm 1 mps 629 mmHg 89%
    08:00 +20°C° 0 mm 1 mps 629 mmHg 88%
    09:00 +22°C° 0.3 mm 1 mps 630 mmHg 82%
    10:00 +23°C° 0.3 mm 1 mps 630 mmHg 76%
    11:00 +25°C° 0.3 mm 1 mps 631 mmHg 69%
    12:00 +25°C° 1.8 mm 1 mps 630 mmHg 70%
    13:00 +26°C° 1.8 mm 1 mps 629 mmHg 71%
    14:00 +26°C° 1.8 mm 1 mps 629 mmHg 71%
    15:00 +23°C° 1.2 mm 0 mps 628 mmHg 75%
    16:00 +22°C° 1.2 mm 0 mps 628 mmHg 79%
    17:00 +22°C° 1.2 mm 0 mps 627 mmHg 82%
    18:00 +20°C° 0.1 mm 0 mps 627 mmHg 84%
    19:00 +19°C° 0.1 mm 0 mps 627 mmHg 85%
    20:00 +17°C° 0.1 mm 0 mps 627 mmHg 87%
    21:00 +17°C° 0 mm 0 mps 627 mmHg 87%
    22:00 +16°C° 0 mm 0 mps 627 mmHg 88%
    23:00 +16°C° 0 mm 0 mps 627 mmHg 88%
    Mostrar más